Hourly Weather Kyselytsi

Today, 29 October, Thursday

Time Temperature Precipitation Wind Pressure Humidity
00:00 +9°C° 0 mm 2 mps 704 mmHg 84%
01:00 +8°C° 0 mm 2 mps 704 mmHg 80%
02:00 +8°C° 0 mm 2 mps 704 mmHg 79%
03:00 +8°C° 0 mm 2 mps 703 mmHg 79%
04:00 +8°C° 0 mm 2 mps 703 mmHg 79%
05:00 +9°C° 0 mm 1 mps 703 mmHg 78%
06:00 +9°C° 0 mm 1 mps 703 mmHg 79%
07:00 +9°C° 0 mm 1 mps 703 mmHg 81%
08:00 +9°C° 0 mm 1 mps 703 mmHg 85%
09:00 +9°C° 0 mm 1 mps 703 mmHg 95%
10:00 +10°C° 0 mm 0 mps 704 mmHg 100%
11:00 +11°C° 0 mm 0 mps 704 mmHg 97%
12:00 +12°C° 0 mm 0 mps 704 mmHg 97%
13:00 +14°C° 0 mm 1 mps 704 mmHg 94%
14:00 +13°C° 0 mm 3 mps 704 mmHg 94%
15:00 +12°C° 0 mm 3 mps 703 mmHg 96%
16:00 +12°C° 0 mm 4 mps 704 mmHg 96%
17:00 +11°C° 0 mm 3 mps 703 mmHg 99%
18:00 +11°C° 0 mm 1 mps 704 mmHg 100%
19:00 +10°C° 0 mm 1 mps 704 mmHg 100%
20:00 +10°C° 0 mm 1 mps 704 mmHg 100%
21:00 +10°C° 0 mm 1 mps 703 mmHg 99%
22:00 +10°C° 0 mm 1 mps 703 mmHg 98%
23:00 +10°C° 0 mm 1 mps 703 mmHg 99%

Tomorrow, 30 October, Friday

Time Temperature Precipitation Wind Pressure Humidity
00:00 +10°C° 0 mm 1 mps 703 mmHg 98%
01:00 +10°C° 0 mm 1 mps 703 mmHg 100%
02:00 +9°C° 0.2 mm 1 mps 703 mmHg 100%
03:00 +9°C° 1.8 mm 1 mps 703 mmHg 100%
04:00 +8°C° 2.8 mm 2 mps 703 mmHg 100%
05:00 +7°C° 3.3 mm 3 mps 703 mmHg 100%
06:00 +5°C° 2 mm 4 mps 703 mmHg 100%
07:00 +5°C° 1.5 mm 3 mps 704 mmHg 100%
08:00 +5°C° 1.8 mm 3 mps 704 mmHg 100%
09:00 +5°C° 0.9 mm 3 mps 704 mmHg 100%
10:00 +5°C° 0 mm 4 mps 705 mmHg 100%
11:00 +7°C° 0 mm 3 mps 705 mmHg 100%
12:00 +7°C° 0 mm 3 mps 705 mmHg 100%
13:00 +6°C° 0 mm 4 mps 705 mmHg 97%
14:00 +7°C° 0 mm 4 mps 705 mmHg 98%
15:00 +7°C° 0 mm 4 mps 705 mmHg 100%
16:00 +6°C° 0 mm 4 mps 705 mmHg 100%
17:00 +7°C° 0 mm 3 mps 705 mmHg 100%
18:00 +6°C° 0 mm 2 mps 705 mmHg 100%
19:00 +6°C° 0 mm 1 mps 705 mmHg 100%
20:00 +5°C° 0 mm 0 mps 705 mmHg 100%
21:00 +6°C° 0 mm 1 mps 705 mmHg 100%
22:00 +5°C° 0 mm 2 mps 705 mmHg 100%
23:00 +5°C° 0 mm 2 mps 705 mmHg 100%

Day after tomorrow, 31 October, Saturday

Time Temperature Precipitation Wind Pressure Humidity
00:00 +5°C° 0 mm 2 mps 704 mmHg 98%
01:00 +5°C° 0 mm 2 mps 704 mmHg 100%
02:00 +5°C° 0 mm 2 mps 704 mmHg 100%
03:00 +5°C° 0 mm 2 mps 703 mmHg 99%
04:00 +5°C° 0.1 mm 2 mps 703 mmHg 100%
05:00 +5°C° 1.2 mm 1 mps 702 mmHg 100%
06:00 +4°C° 1.3 mm 2 mps 702 mmHg 100%
07:00 +4°C° 0.8 mm 2 mps 702 mmHg 100%
08:00 +4°C° 1.2 mm 2 mps 702 mmHg 100%
09:00 +4°C° 1.6 mm 2 mps 702 mmHg 100%
10:00 +4°C° 0.8 mm 2 mps 702 mmHg 100%
11:00 +4°C° 0.1 mm 2 mps 703 mmHg 100%
12:00 +4°C° 0 mm 2 mps 704 mmHg 100%
13:00 +4°C° 0.1 mm 3 mps 704 mmHg 100%
14:00 +5°C° 0.4 mm 2 mps 704 mmHg 100%
15:00 +4°C° 0.4 mm 4 mps 704 mmHg 100%
16:00 +4°C° 0 mm 3 mps 704 mmHg 100%
17:00 +4°C° 0 mm 3 mps 704 mmHg 100%
18:00 +4°C° 0.4 mm 2 mps 704 mmHg 100%
19:00 +4°C° 0.9 mm 2 mps 704 mmHg 100%
20:00 +3°C° 1.5 mm 3 mps 705 mmHg 100%
21:00 +3°C° 0.8 mm 4 mps 705 mmHg 100%
22:00 +3°C° 0.4 mm 3 mps 705 mmHg 100%
23:00 +3°C° 0.2 mm 3 mps 705 mmHg 100%

1 November, Sunday

Time Temperature Precipitation Wind Pressure Humidity
00:00 +2°C° 0.2 mm 3 mps 705 mmHg 100%
01:00 +2°C° 0.1 mm 3 mps 705 mmHg 100%
02:00 +2°C° 0.1 mm 3 mps 705 mmHg 100%
03:00 +2°C° 0.1 mm 3 mps 706 mmHg 100%
04:00 +2°C° 0 mm 3 mps 705 mmHg 100%
05:00 +2°C° 0.1 mm 3 mps 705 mmHg 100%
06:00 +1°C° 0.1 mm 4 mps 705 mmHg 100%
07:00 +1°C° 0.1 mm 4 mps 706 mmHg 100%
08:00 +1°C° 0 mm 5 mps 706 mmHg 100%
09:00 +1°C° 0 mm 4 mps 706 mmHg 100%
10:00 +1°C° 0 mm 4 mps 706 mmHg 100%
11:00 +3°C° 0.1 mm 4 mps 706 mmHg 100%
12:00 +4°C° 0.3 mm 4 mps 706 mmHg 100%
13:00 +4°C° 0.4 mm 4 mps 706 mmHg 100%
14:00 +4°C° 0.8 mm 4 mps 706 mmHg 100%
15:00 +4°C° 1 mm 4 mps 706 mmHg 100%
16:00 +4°C° 0.3 mm 4 mps 706 mmHg 100%
17:00 +4°C° 0 mm 3 mps 706 mmHg 100%
18:00 +5°C° 0 mm 2 mps 706 mmHg 100%
19:00 +5°C° 0 mm 2 mps 706 mmHg 100%
20:00 +6°C° 0 mm 1 mps 706 mmHg 100%
21:00 +6°C° 0 mm 1 mps 706 mmHg 100%
22:00 +4°C° 0 mm 2 mps 706 mmHg 100%
23:00 +5°C° 0 mm 1 mps 706 mmHg 100%

2 November, Monday

Time Temperature Precipitation Wind Pressure Humidity
00:00 +5°C° 0 mm 1 mps 706 mmHg 100%
01:00 +5°C° 0 mm 1 mps 705 mmHg 100%
02:00 +5°C° 0 mm 1 mps 705 mmHg 100%
03:00 +5°C° 0 mm 1 mps 705 mmHg 100%
04:00 +5°C° 0 mm 1 mps 705 mmHg 100%
05:00 +5°C° 0 mm 1 mps 705 mmHg 100%
06:00 +4°C° 0 mm 1 mps 705 mmHg 100%
07:00 +3°C° 0 mm 0 mps 705 mmHg 100%
08:00 +4°C° 0 mm 1 mps 705 mmHg 100%
09:00 +5°C° 0 mm 1 mps 705 mmHg 100%
10:00 +7°C° 0 mm 1 mps 706 mmHg 98%
11:00 +8°C° 0 mm 1 mps 706 mmHg 91%
12:00 +9°C° 0 mm 1 mps 706 mmHg 91%
13:00 +9°C° 0 mm 2 mps 706 mmHg 93%
14:00 +9°C° 0 mm 2 mps 706 mmHg 97%
15:00 +9°C° 0 mm 2 mps 706 mmHg 100%
16:00 +8°C° 0 mm 2 mps 705 mmHg 100%
17:00 +8°C° 0 mm 1 mps 705 mmHg 100%
18:00 +7°C° 0 mm 1 mps 705 mmHg 100%
19:00 +6°C° 0 mm 1 mps 705 mmHg 100%
20:00 +6°C° 0 mm 1 mps 705 mmHg 100%
21:00 +6°C° 0 mm 1 mps 705 mmHg 100%
22:00 +6°C° 0 mm 1 mps 705 mmHg 100%
23:00 +5°C° 0 mm 2 mps 705 mmHg 100%

3 November, Tuesday

Time Temperature Precipitation Wind Pressure Humidity
00:00 +5°C° 0 mm 2 mps 705 mmHg 100%
01:00 +4°C° 0 mm 2 mps 705 mmHg 100%
02:00 +4°C° 0 mm 2 mps 705 mmHg 100%
03:00 +4°C° 0 mm 2 mps 705 mmHg 100%
04:00 +4°C° 0 mm 2 mps 705 mmHg 100%
05:00 +5°C° 0 mm 1 mps 705 mmHg 100%
06:00 +5°C° 0 mm 1 mps 705 mmHg 100%
07:00 +5°C° 0.1 mm 1 mps 706 mmHg 100%
08:00 +5°C° 0.1 mm 1 mps 706 mmHg 100%
09:00 +5°C° 0.1 mm 1 mps 706 mmHg 100%
10:00 +5°C° 0.1 mm 1 mps 706 mmHg 100%
11:00 +5°C° 0 mm 1 mps 706 mmHg 100%
12:00 +5°C° 0 mm 2 mps 706 mmHg 100%
13:00 +6°C° 0 mm 1 mps 706 mmHg 100%
14:00 +5°C° 0 mm 2 mps 706 mmHg 100%
15:00 +5°C° 0 mm 2 mps 707 mmHg 100%
16:00 +5°C° 0.1 mm 2 mps 707 mmHg 100%
17:00 +5°C° 0.3 mm 2 mps 707 mmHg 100%
18:00 +5°C° 0 mm 2 mps 707 mmHg 100%
19:00 +6°C° 0.1 mm 1 mps 707 mmHg 100%
20:00 +5°C° 0.1 mm 2 mps 707 mmHg 100%
21:00 +6°C° 0.1 mm 2 mps 707 mmHg 100%
22:00 +6°C° 0.4 mm 2 mps 707 mmHg 100%
23:00 +6°C° 0.2 mm 2 mps 707 mmHg 100%
Show more

We Need Your Consent

Meteoprog and our Service Providers may store and access personal data such as cookies, device identifiers or other similar technologies on your device and process such data to personalise content and ads, as well as provide social media features and to analyse the traffic.

  • Store and/or access information on your device

    Cookies, device identifiers or other information can be stored or accessed on your device for the purposes indicated above.

  • Personalised ads and content, ad and content measurement, audience insights, and products development

    Ads and content can be personalised based on a profile. More data can be added to better personalise ads and content. Ad and content performance can be measured. Insights about the audience who saw the ads and content can be derived. Such data can be used to develop or improve user’s experience, systems and software.

By clicking ‘I Agree’ you will allow the use of indicated cookies, device identifiers, web beacons or other similar technologies. Your settings can be changed in the browser on your device.

For certain purposes, legitimate interests may be relied on, rather than consent. You can read more about this in our Privacy and Cookie Policy.